Probability
3 3 3 3 2 1 1 2 2 1 2 2 1 0 0 0 0 1 2 2 2 2 1 0 0 0 0 0 1 5 7 7 6 5 4 3 2 1 1 0 0 0 0
3 3 3 3 1 0 1 2 2 2 2 2 1 0 0 0 0 0 1 1 1 1 0 0 0 0 0 1 2 4 7 8 7 5 3 3 3 2 1 1 0 0 0
2 2 2 2 1 0 1 2 3 2 1 1 0 0 0 0 0 0 0 0 1 1 0 1 1 1 1 2 3 5 8 8 6 5 3 3 3 3 1 1 1 1 0
1 1 1 1 0 0 1 2 3 3 2 1 1 1 1 1 1 0 0 0 1 1 1 1 2 2 3 3 4 6 8 7 6 5 4 3 3 2 1 1 2 2 1
1 0 0 0 0 0 1 1 2 3 3 2 2 2 2 2 2 1 1 1 1 1 0 1 3 3 4 4 4 6 6 6 6 5 4 3 4 3 1 1 2 3 3
1 1 0 0 0 0 0 0 1 2 3 3 2 1 2 2 2 2 2 2 1 0 1 2 3 4 4 5 5 5 5 5 5 4 3 4 4 3 1 0 1 2 3
4 3 2 1 2 2 1 0 1 2 3 3 2 1 1 1 1 2 3 2 1 1 3 4 5 5 5 5 5 4 5 5 3 2 2 3 3 3 3 2 2 3 4
9 7 6 5 4 4 3 2 2 4 4 3 2 1 0 0 1 2 4 4 4 4 6 7 8 7 7 8 7 5 4 4 3 2 1 1 2 3 4 4 5 5 5
12 12 11 9 7 7 5 3 4 5 5 3 2 2 2 2 2 3 5 7 7 8 8 9 9 8 9 12 11 6 3 2 2 1 0 0 1 1 2 3 5 6 6
13 13 13 12 12 11 9 7 6 7 7 6 5 5 4 4 4 4 5 7 9 10 10 9 9 8 9 12 12 6 1 1 1 1 0 1 1 1 1 2 4 5 5
12 11 12 14 15 14 13 12 11 10 9 9 9 9 8 6 6 6 5 6 9 11 11 10 10 9 9 9 8 4 1 0 0 0 0 1 2 2 1 2 4 5 6
9 9 10 13 14 15 16 15 13 11 10 10 12 12 10 8 7 8 7 7 9 11 11 11 11 10 9 8 6 3 1 0 0 0 0 1 1 1 1 2 3 4 5
9 9 9 11 12 13 14 14 12 9 8 8 10 12 11 10 9 9 9 9 10 10 10 10 10 11 11 9 6 2 1 0 0 0 0 0 0 1 1 3 3 3 4
13 12 10 9 9 10 11 12 11 10 8 7 8 11 13 13 11 11 11 11 10 9 9 10 10 11 12 10 5 3 2 1 0 0 0 0 0 1 2 3 4 3 3
15 13 10 9 8 9 11 12 12 12 11 10 10 12 15 15 14 14 14 14 12 10 9 11 11 10 10 8 4 4 4 1 0 0 0 0 0 1 2 3 4 4 3
17 15 12 10 10 12 14 15 15 13 12 11 11 13 14 15 15 15 16 16 15 12 10 12 14 12 10 7 6 6 5 2 1 0 0 0 0 0 1 2 3 3 3
20 18 16 15 15 16 16 16 15 12 10 10 10 10 12 13 13 14 15 16 17 15 13 13 15 15 12 9 8 8 6 4 3 1 0 0 0 0 0 1 1 2 2
22 20 20 20 19 18 18 16 13 11 10 10 9 9 9 10 11 13 14 15 16 16 14 14 16 16 14 10 9 8 5 4 3 1 0 0 0 0 0 0 0 1 1
24 23 22 21 20 19 18 16 14 13 12 11 10 9 9 9 11 11 11 12 13 13 13 14 15 15 13 10 9 7 5 4 3 1 0 0 0 0 0 0 0 0 0
24 24 23 21 20 19 18 17 16 15 15 14 13 12 11 11 10 8 7 8 9 11 12 14 14 13 12 11 9 8 6 5 3 2 1 1 0 0 0 0 0 0 0
22 21 21 20 19 18 17 16 16 17 17 16 16 15 13 10 8 5 4 5 8 10 12 13 13 11 11 10 10 9 7 6 5 3 3 2 1 0 0 0 0 0 0
20 19 18 17 17 16 13 12 13 15 16 17 17 15 12 9 7 6 4 4 5 8 11 12 12 11 11 11 11 9 8 8 6 5 4 3 1 0 0 0 0 0 0
19 18 17 16 15 13 9 7 8 10 13 15 16 14 11 9 8 8 7 5 4 6 9 12 14 13 14 15 15 12 11 10 9 7 6 4 3 1 0 0 0 0 0
19 17 17 17 15 11 6 4 5 6 9 10 12 12 11 9 9 10 10 8 7 8 8 10 13 13 13 14 15 14 12 11 9 10 9 7 5 3 1 0 0 0 0
18 16 15 15 13 9 4 2 3 5 7 7 9 9 8 8 8 8 10 11 11 10 9 8 9 9 8 8 10 13 12 9 8 9 11 10 7 4 2 1 0 0 0
17 14 12 11 10 7 4 1 2 5 6 7 7 7 6 5 6 7 10 13 13 12 10 7 6 5 4 3 6 11 12 8 6 8 11 12 8 4 2 1 1 1 1
Wind_Speed
2 1 1 1 1 2 3 2 2 2 2 3 2 3 2 3 3 2 2 6 6 6 5 6 6 6 6 6 7 6 6 6 7 7 7 8 9 8 9 9 9 9 9
1 2 2 1 1 1 1 1 2 2 2 2 3 3 3 3 2 2 2 4 7 6 6 6 6 7 7 6 7 6 6 6 6 5 6 7 8 8 9 9 9 9 9
2 2 2 2 1 1 2 2 2 2 2 3 3 3 3 3 2 3 3 2 4 7 7 6 5 5 6 6 6 6 6 6 6 5 6 6 7 8 9 9 9 10 9
3 2 2 2 2 2 2 2 2 2 1 2 2 2 2 3 3 3 3 3 2 2 6 6 5 5 5 5 5 6 5 5 5 6 6 5 5 6 7 8 9 9 9
3 3 2 1 2 2 2 2 1 2 2 2 2 2 2 2 2 3 3 3 3 3 2 5 7 6 5 5 5 6 5 5 5 5 6 5 5 5 5 6 7 7 8
2 2 2 2 2 2 1 1 2 2 2 2 3 1 1 2 2 2 3 3 3 4 3 3 4 6 7 5 5 5 5 5 4 4 5 5 5 5 5 6 6 7 7
2 2 2 2 2 1 1 2 2 3 2 2 2 2 2 3 2 2 3 2 3 3 3 3 3 2 4 8 5 4 5 4 4 5 5 4 5 5 5 6 6 6 7
2 3 2 2 2 1 1 2 2 2 2 1 2 2 2 3 3 3 2 3 2 2 3 3 2 2 2 2 4 5 4 4 4 4 4 3 4 5 5 6 6 6 6
2 2 2 2 2 2 2 2 2 3 2 1 1 3 2 1 0 2 2 2 2 2 2 2 2 2 2 1 2 4 3 3 4 3 3 4 4 4 5 6 6 6 6
2 2 2 2 2 2 2 3 2 2 3 2 1 1 2 3 3 1 2 2 2 2 2 2 1 2 2 2 2 2 2 2 3 3 2 3 3 3 4 5 6 6 6
3 3 3 2 2 2 2 3 2 3 2 2 2 1 2 2 3 3 2 1 1 2 2 2 1 1 1 1 2 2 3 2 2 2 2 2 2 3 4 4 6 6 6
2 3 3 3 3 3 3 3 3 2 2 3 2 2 2 2 2 3 3 2 2 1 1 0 1 1 1 1 1 4 4 2 2 2 2 2 2 3 4 4 5 6 7
2 2 2 3 3 3 3 3 3 3 3 2 3 2 2 2 2 3 3 3 3 2 1 1 1 1 1 1 2 3 4 3 2 1 2 1 2 3 4 4 5 5 5
2 1 2 3 3 3 3 3 3 3 2 2 2 2 2 2 3 3 3 3 3 2 1 0 1 0 1 0 2 3 3 4 2 2 1 1 2 2 3 3 4 4 4
2 2 2 3 3 3 3 3 2 2 2 2 2 2 2 2 2 2 2 3 3 3 2 0 1 0 0 0 1 1 1 4 3 3 2 2 2 2 2 2 3 3 3
2 2 2 2 3 3 3 3 3 2 2 2 2 2 3 2 2 2 2 3 3 4 3 1 0 1 1 1 2 1 1 5 4 4 3 3 2 2 3 3 3 3 2
3 3 2 2 2 2 2 3 3 2 2 2 3 3 3 2 2 2 2 2 2 3 3 2 1 1 0 2 0 1 2 2 4 5 4 4 3 3 3 3 3 3 3
3 3 2 3 3 2 2 2 2 2 2 3 3 3 3 2 2 3 2 2 2 2 3 3 2 1 1 1 1 2 1 2 2 5 6 5 5 5 4 4 4 3 3
3 2 2 2 2 2 2 2 2 2 2 2 2 3 3 3 3 2 3 2 2 2 2 3 2 1 1 1 2 2 1 1 2 5 7 7 6 6 5 4 4 3 3
3 3 3 3 2 2 2 2 2 2 2 2 2 3 3 3 3 3 3 3 3 3 2 3 2 2 2 1 2 2 2 2 2 2 2 3 6 8 7 6 5 5 4
4 3 3 3 3 3 2 2 3 2 2 3 3 3 2 2 2 3 3 2 3 3 3 3 3 2 2 2 2 2 2 2 2 2 1 2 3 4 5 6 6 5 5
3 3 4 3 3 1 1 1 4 3 3 3 3 3 3 4 4 4 3 4 4 5 4 4 3 3 3 3 2 3 3 3 2 1 2 2 2 3 2 2 4 6 6
4 4 4 4 3 2 2 3 3 4 4 4 3 4 4 1 2 3 4 7 6 6 6 6 5 5 4 3 4 5 3 4 4 2 3 3 3 3 2 2 7 6 6
3 3 3 4 3 2 3 3 4 6 5 4 4 4 4 3 3 3 4 4 5 5 5 6 4 5 5 3 4 5 5 5 4 3 3 4 3 3 2 1 7 7 7
3 3 3 3 3 2 2 3 4 5 4 4 4 4 4 3 1 3 5 5 5 4 4 4 4 4 3 4 5 5 4 4 3 3 3 4 3 2 3 2 4 8 8
3 3 3 3 3 2 2 2 4 4 4 4 3 3 3 2 2 3 5 5 5 4 4 3 4 6 6 6 7 6 5 5 4 3 2 3 3 2 3 2 2 4 5
Wind_Direction
155 139 138 166 176 142 158 166 163 168 185 185 200 198 218 229 230 225 159 172 199 219 233 246 248 246 240 239 239 235 232 228 226 235 232 232 230 223 221 222 224 221 220
151 167 169 177 176 163 136 166 172 193 197 186 199 196 224 230 223 231 224 184 196 212 231 248 254 250 240 234 237 236 233 227 227 231 230 233 230 227 224 222 221 221 218
174 192 187 191 186 190 183 192 197 208 204 200 199 203 211 222 229 234 238 232 198 198 217 236 253 254 244 233 230 231 233 227 224 227 231 230 230 228 226 226 222 219 217
195 217 208 191 196 200 193 189 205 217 214 222 210 219 207 201 221 228 226 225 240 223 196 206 236 248 244 228 223 229 233 227 224 227 230 226 225 226 226 224 219 221 219
199 222 231 204 215 205 206 226 176 231 215 237 227 214 223 221 218 225 221 226 226 249 242 184 207 223 231 224 223 226 226 228 227 232 235 230 227 225 224 223 219 219 215
197 227 214 207 224 206 214 215 215 219 240 247 259 237 235 217 221 223 236 222 222 237 243 239 208 198 203 211 222 225 220 216 222 235 240 236 230 227 226 224 220 213 209
201 225 239 193 227 209 232 226 227 203 218 231 243 228 213 212 210 220 237 249 227 231 245 247 246 236 182 185 198 212 214 213 226 235 239 242 238 230 225 222 216 209 208
217 210 218 223 220 204 203 231 236 250 218 210 253 251 225 184 200 214 215 221 246 239 233 224 217 220 254 192 151 184 209 223 230 233 235 244 248 235 224 218 212 204 199
218 231 216 242 233 233 203 221 226 232 241 228 268 286 291 313 287 182 209 220 242 260 260 231 204 204 215 213 169 158 193 231 240 231 237 247 249 238 219 208 201 197 195
219 217 218 229 240 242 228 234 215 238 249 253 217 248 293 323 297 284 202 189 205 243 273 276 226 202 214 202 167 118 158 224 238 239 255 259 234 213 209 207 202 200 196
216 222 221 229 239 249 250 261 242 257 249 260 263 248 244 241 261 281 291 288 232 225 229 233 236 244 208 209 197 121 139 186 227 235 246 253 236 213 201 202 203 201 198
210 218 227 233 238 248 243 243 247 237 261 276 280 269 263 266 271 270 273 269 279 278 248 204 246 237 234 215 127 98 133 162 197 213 227 240 227 205 202 198 199 203 200
218 215 233 233 241 241 243 246 242 263 255 256 266 275 273 272 277 277 279 285 285 271 219 220 249 259 254 200 111 119 137 148 177 197 215 225 206 195 194 196 198 192 190
249 245 229 232 237 242 240 235 243 240 240 248 263 270 267 262 255 264 275 280 276 267 232 337 311 75 333 32 87 207 138 136 160 169 177 172 170 182 186 191 192 182 179
240 226 229 228 233 235 243 240 235 243 237 245 251 249 259 262 272 273 269 273 279 284 286 174 269 39 252 76 114 197 156 131 158 163 160 158 161 163 162 167 167 172 179
251 238 225 222 227 230 232 242 230 212 227 238 258 285 280 274 268 261 258 259 265 275 288 319 255 359 7 277 142 232 172 149 159 161 159 157 161 175 180 179 177 186 191
231 232 230 225 222 222 231 237 251 231 232 245 255 246 255 279 285 277 263 259 262 265 268 275 284 100 278 299 5 252 207 204 152 158 168 171 181 185 189 193 192 200 207
222 219 217 212 216 215 233 242 255 243 234 241 249 249 254 248 258 276 278 272 271 264 265 273 278 236 220 249 250 255 228 218 199 154 172 180 185 184 184 189 191 196 201
217 214 208 212 223 225 232 242 254 252 245 250 253 253 255 258 264 267 267 269 265 253 254 250 254 249 232 247 250 242 241 261 236 163 170 177 180 184 184 187 190 196 200
211 214 212 216 228 230 239 249 243 241 242 246 245 251 257 259 261 262 256 259 269 271 250 253 240 234 216 214 242 235 223 220 249 216 186 195 179 186 186 186 189 196 201
211 209 219 223 232 232 242 254 254 238 247 254 245 241 237 244 289 283 292 284 272 269 261 256 246 244 236 228 239 245 253 246 232 232 238 218 199 207 192 189 194 199 204
209 213 221 227 234 238 105 241 266 251 240 245 250 250 225 208 205 215 246 276 285 273 278 271 261 257 249 246 254 260 259 259 256 206 249 248 238 234 219 208 168 180 196
205 213 222 231 231 194 177 213 247 261 255 256 252 256 267 262 242 253 222 223 238 243 255 271 277 279 268 258 261 259 260 270 276 258 250 257 248 247 237 162 153 172 187
213 217 223 226 227 197 178 208 247 248 252 251 248 249 258 261 279 277 264 256 254 247 244 246 259 267 275 283 261 256 252 251 255 240 227 253 247 255 249 191 159 171 182
214 221 221 224 224 199 174 202 248 248 243 247 249 251 251 245 228 270 257 255 260 258 241 231 253 258 274 271 275 264 251 250 256 246 233 256 265 266 255 219 174 177 184
218 230 224 230 228 218 163 183 251 255 250 252 240 227 211 241 244 261 257 259 260 268 273 244 229 230 233 225 225 246 256 256 265 261 220 254 253 257 259 242 213 194 193